Domov               UVHVVR             MKGP            O straneh              
ZDRAVSTVENO VARSTVO RASTLIN
  MREŽA AGROMET. POSTAJ
 ► PROGNOSTIČNA OBVESTILA
AGROMETEOROLOŠKI PODATKI -
ARSO
OBVLADOVANJE TVEGANJ ZARADI
NEUGODNIH VREMENSKIH RAZMER
  ► NARAVNE NESREČE
  ► SUŠA/MOČA
  ► NAMAKANJE
  ► ŽLED (gozdarstvo)
KARTOGRAFSKI PRIKAZI
SPLETNE POVEZAVE
PROJEKTI IN PUBLIKACIJE

AGROMETEOROLOŠKA MREŽA: VREMENSKE POSTAJE IN FENOLOŠKA OPAZOVANJA

Pregled podatkov za lokacijo Kozana, meteorološka postaja 863701

Pregled senzorjev na lokaciji

ID Ime Zadnja
vrednost
Datum
zadnje
spremembe
Tip
senzorja
4186 Temperatura 2 m ( °C) 16,09 °C 23.8.2017 05:30 50YA
4187 Relativna vlaga 2 m (% RH) 75,2 % RH 23.8.2017 05:30 50YA
4188 Omočenost lista (U) 0 U 23.8.2017 05:30 A730WET
4189 Padavine 0.2 mm (mm) 0 mm 23.8.2017 05:30 Rain-O-Matic

Pregled podatkov zadnjih 24 ur

Zap.
št.
Datum in čas Kozana
Omočenost
lista
Padavine
0.2
mm
Relativna
vlaga
2
m
Temperatura
2
m
0 23.8.2017 04:30 0 0 75,2 16,09
1 23.8.2017 04:00 0 0 74,25 16,36
2 23.8.2017 03:30 0 0 75,11 16,22
3 23.8.2017 03:00 0 0 75,36 16,24
4 23.8.2017 02:30 0 0 75,31 16,27
5 23.8.2017 02:00 0 0 73,43 16,69
6 23.8.2017 01:30 0 0 71,22 17,14
7 23.8.2017 01:00 0 0 70,08 17,46
8 23.8.2017 00:30 0 0 71,72 17,25
9 23.8.2017 00:00 0 0 73,11 16,93
10 22.8.2017 23:30 0 0 73,49 16,78
11 22.8.2017 23:00 0 0 73,13 16,79
12 22.8.2017 22:30 0 0 69,99 17,29
13 22.8.2017 22:00 0 0 71,09 17,05
14 22.8.2017 21:30 0 0 68,45 17,55
15 22.8.2017 21:00 0 0 62,79 18,2
16 22.8.2017 20:30 0 0 59,74 18,67
17 22.8.2017 20:00 0 0 56,18 19,53
18 22.8.2017 19:30 0 0 56,83 19,75
19 22.8.2017 19:00 0 0 54,29 21,04
20 22.8.2017 18:30 0 0 51,17 22,37
21 22.8.2017 18:00 0 0 49,31 22,86
22 22.8.2017 17:30 0 0 47,99 23,75
23 22.8.2017 17:00 0 0 46,99 24,23
24 22.8.2017 16:30 0 0 45,65 24,51
25 22.8.2017 16:00 0 0 43,71 24,77
26 22.8.2017 15:30 0 0 42,98 25,06
27 22.8.2017 15:00 0 0 42,68 25,29
28 22.8.2017 14:30 0 0 42,5 25,02
29 22.8.2017 14:00 0 0 42,36 25
30 22.8.2017 13:30 0 0 42,81 24,71
31 22.8.2017 13:00 0 0 42,76 25,21
32 22.8.2017 12:30 0 0 42,5 24,9
33 22.8.2017 12:00 0 0 42,3 24,4
34 22.8.2017 11:30 0 0 41,64 24,03
35 22.8.2017 11:00 0 0 40,81 23,71
36 22.8.2017 10:30 0 0 41,78 23,13
37 22.8.2017 10:00 0 0 44,93 22,65
38 22.8.2017 09:30 0 0 49,21 22,07
39 22.8.2017 09:00 0 0 53,22 20,11
40 22.8.2017 08:30 0 0 55,66 18,88
41 22.8.2017 08:00 0 0 58,88 17,72
42 22.8.2017 07:30 0 0 60,18 17,03
43 22.8.2017 07:00 0 0 63,32 15,97
44 22.8.2017 06:30 0 0 66,45 14,74
© 2011 Ministrstvo za kmetijstvo, gozdarstvo in prehrano. Vse pravice pridržane.